Location: Newark
(47.3150°N, 5.1150°E)
Time: 22:46:00
(UTC+00:00)

AO-7 - Pass Details

Date: 16 December 2019
Orbit: 1440 x 1458 km, 101.8° (Epoch: 20 January)

Event Time Altitude Azimuth Distance (km) Brightness Sun altitude
Rises 01:37:08 0° 29° (NNE) 4,565 ? -55.8°
Reaches altitude 10° 01:41:24 10° 49° (NE) 3,584 ? -55.2°
Maximum altitude 01:46:22 17° 87° (E) 3,083 ? -54.5°
Enters shadow 01:48:14 16° 102° (ESE) 3,158 ? -54.2°
